KB3HHA-13 Weather Reports


time (UTC)temp
F
wind
direction
speed
knots
gust
knots
rain 1hr
in
rain 24hr
in
rain mn
in
humidity
%
barometer
mb
20260504141200 62 90 1.7 5.2 0.00 0.00 0.00 47 1013.8
20260504140700 61 90 0.9 5.2 0.00 0.00 0.00 46 1013.9
20260504140201 61 90 0.9 5.2 0.00 0.00 0.00 47 1013.9
20260504130700 55 67 0.0 3.5 0.00 0.00 0.00 60 1014.4
20260504130200 55 67 0.0 2.6 0.00 0.00 0.00 62 1014.5
20260504120200 48 90 0.9 1.7 0.00 0.00 0.00 76 1014.8
20260504110702 43 45 0.0 0.0 0.00 0.00 0.00 92 1015.0
20260504110202 42 45 0.0 0.0 0.00 0.00 0.00 92 1015.0
20260504100201 44 45 0.0 0.0 0.00 0.00 0.00 89 1014.9
20260504081700 43 45 0.0 0.0 0.00 0.00 0.00 90 1015.2
20260504081202 43 45 0.0 0.0 0.00 0.00 0.00 90 1015.2
20260504080701 42 45 0.0 0.0 0.00 0.00 0.00 90 1015.2
20260504080201 42 45 0.0 0.0 0.00 0.00 0.00 90 1015.3
20260504070202 41 45 0.0 0.0 0.00 0.00 0.00 90 1015.3
20260504060200 39 45 0.0 0.0 0.00 0.00 0.00 91 1015.7
20260504050700 39 45 0.0 0.0 0.00 0.00 0.00 88 1015.8
20260504050201 39 45 0.0 0.0 0.00 0.00 0.00 88 1015.9
20260504045701 39 45 0.0 0.0 0.00 0.00 0.00 87 1015.9
20260504045200 39 45 0.0 0.0 0.00 0.00 0.00 87 1015.8
20260504044701 39 45 0.0 0.0 0.00 0.00 0.00 87 1015.8
20260504044201 39 45 0.0 0.0 0.00 0.00 0.00 87 1015.8
20260504043701 39 45 0.0 0.0 0.00 0.00 0.00 87 1015.7
20260504043200 39 45 0.0 0.0 0.00 0.00 0.00 87 1015.7
20260504042702 40 45 0.0 0.0 0.00 0.00 0.00 86 1015.6
20260504042201 40 45 0.0 0.0 0.00 0.00 0.00 86 1015.7
20260504041701 40 45 0.0 0.0 0.00 0.00 0.00 85 1015.7
20260504041202 40 45 0.0 0.0 0.00 0.00 0.00 85 1015.7
20260504040702 40 45 0.0 0.0 0.00 0.00 0.00 85 1015.6
20260504040201 40 45 0.0 0.0 0.00 0.00 0.00 84 1015.6
20260504035700 40 45 0.0 0.0 0.00 0.00 0.00 84 1015.6
20260504035200 41 45 0.0 0.0 0.00 0.00 0.00 84 1015.6
20260504034702 41 45 0.0 0.0 0.00 0.00 0.00 83 1015.6
20260504034201 41 45 0.0 0.0 0.00 0.00 0.00 83 1015.6
20260504033700 41 45 0.0 0.0 0.00 0.00 0.00 82 1015.6
20260504033202 41 45 0.0 0.0 0.00 0.00 0.00 82 1015.5
20260504032700 41 45 0.0 0.0 0.00 0.00 0.00 81 1015.5
20260504032200 42 45 0.0 0.0 0.00 0.00 0.00 81 1015.4
20260504031700 42 45 0.0 0.0 0.00 0.00 0.00 81 1015.4
20260504031200 42 45 0.0 0.0 0.00 0.00 0.00 81 1015.3
20260504030700 42 45 0.0 0.0 0.00 0.00 0.00 80 1015.2
20260504030202 42 45 0.0 0.0 0.00 0.00 0.00 79 1015.3
20260504025700 43 45 0.0 0.0 0.00 0.00 0.00 79 1015.2
20260504025202 43 45 0.0 0.0 0.00 0.00 0.00 78 1015.2
20260504024700 43 45 0.0 0.0 0.00 0.00 0.00 79 1015.1
20260504024202 43 45 0.0 0.0 0.00 0.00 0.00 78 1015.0
20260504023701 43 45 0.0 0.0 0.00 0.00 0.00 76 1015.0
20260504023200 44 45 0.0 0.0 0.00 0.00 0.00 75 1015.0
20260504022702 44 45 0.0 0.0 0.00 0.00 0.00 75 1015.0
20260504022200 44 45 0.0 0.0 0.00 0.00 0.00 75 1015.0
20260504021702 44 45 0.0 0.0 0.00 0.00 0.00 75 1015.0
20260504021202 45 45 0.0 0.0 0.00 0.00 0.00 74 1015.0
20260504020701 45 45 0.0 0.0 0.00 0.00 0.00 73 1015.0
20260504020201 45 45 0.0 0.0 0.00 0.00 0.00 73 1015.0
20260504015700 45 45 0.0 0.0 0.00 0.00 0.00 71 1014.9
20260504015200 46 45 0.0 0.0 0.00 0.00 0.00 71 1014.9
20260504014700 46 45 0.0 0.0 0.00 0.00 0.00 70 1014.8
20260504014201 46 45 0.0 0.0 0.00 0.00 0.00 70 1014.8
20260504013701 47 45 0.0 0.0 0.00 0.00 0.00 70 1014.8
20260504013201 47 45 0.0 0.0 0.00 0.00 0.00 68 1014.8
20260504012700 47 45 0.0 0.0 0.00 0.00 0.00 68 1014.8
20260504012200 48 45 0.0 0.0 0.00 0.00 0.00 67 1014.7
20260504011701 48 45 0.0 0.0 0.00 0.00 0.00 65 1014.7
20260504011200 49 45 0.0 0.0 0.00 0.00 0.00 63 1014.6
20260504010700 49 45 0.0 0.0 0.00 0.00 0.00 62 1014.6
20260504010202 49 45 0.0 0.0 0.00 0.00 0.00 62 1014.7
20260504005700 50 45 0.0 0.0 0.00 0.00 0.00 61 1014.6
20260504005200 51 45 0.0 0.0 0.00 0.00 0.00 60 1014.6
20260504004700 51 45 0.0 0.0 0.00 0.00 0.00 58 1014.6
20260504004203 52 45 0.0 0.0 0.00 0.00 0.00 55 1014.4
20260504003701 52 45 0.0 0.0 0.00 0.00 0.00 53 1014.4
20260504003202 53 45 0.0 0.0 0.00 0.00 0.00 53 1014.4
20260504002701 54 45 0.0 0.0 0.00 0.00 0.00 51 1014.3
20260504002200 55 45 0.0 0.0 0.00 0.00 0.00 51 1014.3
20260504001700 55 45 0.0 0.0 0.00 0.00 0.00 48 1014.2
20260504001200 56 45 0.0 0.0 0.00 0.00 0.00 47 1014.2
20260504000702 57 45 0.0 0.0 0.00 0.00 0.00 48 1014.2
20260504000204 58 45 0.0 0.9 0.00 0.00 0.00 46 1014.1
20260503235700 59 45 0.0 0.9 0.00 0.00 0.00 41 1014.0
20260503235203 59 45 0.0 0.9 0.00 0.00 0.00 38 1014.0
20260503234701 60 45 0.0 0.9 0.00 0.00 0.00 35 1013.9
20260503234201 60 67 0.0 1.7 0.00 0.00 0.00 33 1013.9
20260503233702 60 67 0.0 1.7 0.00 0.00 0.00 33 1013.9
20260503233200 61 45 0.0 1.7 0.00 0.00 0.00 33 1013.9
20260503232700 61 67 0.0 2.6 0.00 0.00 0.00 32 1013.8
20260503232200 61 67 0.0 3.5 0.00 0.00 0.00 32 1013.8
20260503231702 61 45 0.0 4.3 0.00 0.00 0.00 32 1013.8
20260503231201 61 90 0.9 4.3 0.00 0.00 0.00 32 1013.7
20260503230703 61 45 0.0 3.5 0.00 0.00 0.00 32 1013.6
20260503230201 61 45 0.9 3.5 0.00 0.00 0.00 33 1013.6
20260503225702 61 45 0.9 3.5 0.00 0.00 0.00 34 1013.6
20260503225202 62 45 0.0 2.6 0.00 0.00 0.00 32 1013.6
20260503224701 62 45 0.0 5.2 0.00 0.00 0.00 31 1013.6
20260503224200 62 67 0.9 5.2 0.00 0.00 0.00 32 1013.6
20260503223700 62 67 0.9 4.3 0.00 0.00 0.00 31 1013.7
20260503223201 62 45 0.0 5.2 0.00 0.00 0.00 31 1013.7
20260503222700 62 45 0.0 5.2 0.00 0.00 0.00 31 1013.8
20260503222200 62 45 1.7 4.3 0.00 0.00 0.00 31 1013.7
20260503221700 62 67 0.0 6.1 0.00 0.00 0.00 30 1013.8
20260503221200 62 67 1.7 6.1 0.00 0.00 0.00 31 1013.8
20260503220700 62 67 0.9 6.1 0.00 0.00 0.00 30 1013.9
20260503220202 62 67 1.7 6.1 0.00 0.00 0.00 31 1013.9
20260503215702 62 67 0.9 7.0 0.00 0.00 0.00 31 1013.9
20260503215200 62 45 1.7 8.7 0.00 0.00 0.00 31 1013.9
20260503214700 62 90 2.6 8.7 0.00 0.00 0.00 31 1013.9
20260503214200 62 67 1.7 7.0 0.00 0.00 0.00 31 1013.9
20260503213700 62 67 1.7 6.1 0.00 0.00 0.00 31 1013.9
20260503213201 62 67 1.7 6.1 0.00 0.00 0.00 31 1013.8
20260503212701 62 67 2.6 9.6 0.00 0.00 0.00 31 1014.0
20260503212201 62 90 3.5 9.6 0.00 0.00 0.00 30 1014.0
20260503211700 62 67 0.9 4.3 0.00 0.00 0.00 31 1013.9
20260503211201 62 45 1.7 5.2 0.00 0.00 0.00 32 1013.9
20260503210701 62 67 1.7 11.3 0.00 0.00 0.00 32 1013.9
20260503210200 62 45 1.7 11.3 0.00 0.00 0.00 32 1013.9
20260503205702 62 90 1.7 7.8 0.00 0.00 0.00 31 1014.1
20260503205200 62 67 4.3 7.0 0.00 0.00 0.00 33 1014.1
20260503204702 62 90 0.9 7.0 0.00 0.00 0.00 31 1014.1
20260503204201 62 45 1.7 7.0 0.00 0.00 0.00 32 1014.1
20260503203700 62 67 1.7 7.8 0.00 0.00 0.00 30 1014.2
20260503203201 62 90 1.7 9.6 0.00 0.00 0.00 30 1014.2
20260503202701 63 67 4.3 9.6 0.00 0.00 0.00 32 1014.1
20260503202201 62 337 1.7 5.2 0.00 0.00 0.00 32 1014.1
20260503201703 62 337 1.7 5.2 0.00 0.00 0.00 32 1014.2
20260503201200 63 45 1.7 7.0 0.00 0.00 0.00 31 1014.4
20260503200700 63 45 2.6 7.0 0.00 0.00 0.00 33 1014.6
20260503200202 63 45 1.7 6.1 0.00 0.00 0.00 33 1014.5
20260503195700 63 22 0.9 6.1 0.00 0.00 0.00 37 1014.7
20260503195200 62 22 0.9 6.1 0.00 0.00 0.00 34 1014.7
20260503194700 62 45 0.9 6.1 0.00 0.00 0.00 33 1014.7
20260503194202 62 90 1.7 9.6 0.00 0.00 0.00 32 1014.8
20260503193702 62 90 4.3 9.6 0.00 0.00 0.00 33 1015.1
20260503193201 62 22 1.7 6.1 0.00 0.00 0.00 36 1015.0
20260503192700 61 0 1.7 7.8 0.00 0.00 0.00 34 1014.9
20260503192200 62 67 1.7 7.8 0.00 0.00 0.00 34 1015.1
20260503191700 61 67 3.5 8.7 0.00 0.00 0.00 35 1015.2
20260503191204 61 67 3.5 8.7 0.00 0.00 0.00 35 1015.2
20260503190702 61 67 2.6 10.4 0.00 0.00 0.00 34 1015.2
20260503190202 62 22 3.5 10.4 0.00 0.00 0.00 38 1015.3
20260503185701 61 337 1.7 5.2 0.00 0.00 0.00 38 1015.3
20260503185200 61 67 1.7 7.8 0.00 0.00 0.00 35 1015.4
20260503184700 61 22 3.5 7.8 0.00 0.00 0.00 36 1015.5
20260503184201 61 90 2.6 5.2 0.00 0.00 0.00 38 1015.5
20260503183701 61 0 2.6 5.2 0.00 0.00 0.00 39 1015.6
20260503183200 61 0 1.7 5.2 0.00 0.00 0.00 40 1015.7
20260503182701 61 22 1.7 7.0 0.00 0.00 0.00 38 1015.7
20260503182202 61 45 2.6 7.0 0.00 0.00 0.00 37 1015.6
20260503181700 61 67 0.9 6.1 0.00 0.00 0.00 39 1015.7
20260503181201 60 45 1.7 7.0 0.00 0.00 0.00 39 1015.8
20260503180701 60 22 3.5 7.0 0.00 0.00 0.00 39 1015.9
20260503180200 60 45 0.9 7.0 0.00 0.00 0.00 43 1015.8
20260503175702 59 90 0.9 7.0 0.00 0.00 0.00 41 1015.8
20260503175200 59 292 1.7 7.0 0.00 0.00 0.00 39 1016.0
20260503174701 59 45 1.7 7.0 0.00 0.00 0.00 39 1016.1
20260503174200 59 90 2.6 11.3 0.00 0.00 0.00 38 1016.0
20260503173700 59 0 5.2 11.3 0.00 0.00 0.00 41 1016.1
20260503173200 59 315 2.6 5.2 0.00 0.00 0.00 43 1016.0
20260503172700 58 45 2.6 6.1 0.00 0.00 0.00 44 1016.2
20260503172201 58 337 2.6 6.1 0.00 0.00 0.00 39 1016.2
20260503171701 58 337 2.6 13.0 0.00 0.00 0.00 42 1016.1
20260503171200 58 45 2.6 13.0 0.00 0.00 0.00 43 1016.1
20260503170700 58 22 2.6 6.1 0.00 0.00 0.00 42 1016.3
20260503170201 58 22 1.7 7.0 0.00 0.00 0.00 44 1016.4
20260503160202 54 90 0.9 8.7 0.00 0.00 0.00 46 1017.0
20260503150700 51 67 1.7 7.8 0.00 0.00 0.00 49 1017.2
20260503150200 51 45 2.6 8.7 0.00 0.00 0.00 49 1017.3